TimeEST,TemperatureF,Dew PointF,Humidity,Sea Level PressureIn,VisibilityMPH,Wind Direction,Wind SpeedMPH,Gust SpeedMPH,PrecipitationIn,Events,Conditions,WindDirDegrees,DateUTC
12:53 AM,46.0,42.1,86,29.85,9.0,SW,12.7,-,0.02,Rain,Light Rain,220,2012-12-03 05:53:00
1:39 AM,44.6,42.8,93,29.84,8.0,SSW,3.5,-,0.03,Rain,Light Rain,200,2012-12-03 06:39:00
1:53 AM,44.1,42.1,93,29.86,10.0,SSW,5.8,-,0.03,Rain,Light Rain,210,2012-12-03 06:53:00
2:53 AM,43.0,41.0,93,29.86,10.0,SSW,6.9,-,0.01,,Overcast,210,2012-12-03 07:53:00
3:53 AM,43.0,39.9,89,29.86,10.0,SSW,6.9,-,N/A,,Overcast,210,2012-12-03 08:53:00
4:53 AM,42.1,39.9,92,29.87,9.0,SSW,3.5,-,N/A,,Overcast,210,2012-12-03 09:53:00
5:28 AM,42.8,39.2,87,29.87,8.0,SW,5.8,-,N/A,,Overcast,220,2012-12-03 10:28:00
5:53 AM,42.1,39.9,92,29.88,9.0,SSW,5.8,-,N/A,,Overcast,210,2012-12-03 10:53:00
6:53 AM,42.1,39.9,92,29.91,8.0,SSW,8.1,-,N/A,,Overcast,210,2012-12-03 11:53:00
7:53 AM,42.1,39.9,92,29.92,4.0,SSW,3.5,-,0.00,,Overcast,210,2012-12-03 12:53:00
8:20 AM,42.8,39.2,87,29.92,6.0,SW,3.5,-,0.00,,Overcast,220,2012-12-03 13:20:00
8:28 AM,42.8,39.2,87,29.93,6.0,SW,4.6,-,0.00,,Overcast,230,2012-12-03 13:28:00
8:53 AM,43.0,39.9,89,29.95,10.0,West,6.9,-,0.01,,Overcast,260,2012-12-03 13:53:00
9:53 AM,42.8,37.4,81,29.98,10.0,NNW,8.1,-,N/A,,Overcast,340,2012-12-03 14:53:00
10:53 AM,42.1,37.0,82,30.02,10.0,NW,9.2,-,N/A,,Overcast,310,2012-12-03 15:53:00
11:53 AM,41.0,34.0,76,30.03,10.0,NNW,13.8,18.4,N/A,,Overcast,340,2012-12-03 16:53:00
12:53 PM,39.9,33.1,77,30.06,10.0,NNW,12.7,19.6,N/A,,Overcast,330,2012-12-03 17:53:00
1:31 PM,41.0,33.8,76,30.05,10.0,NW,6.9,-,N/A,,Mostly Cloudy,320,2012-12-03 18:31:00
1:38 PM,41.0,33.8,76,30.05,10.0,WNW,6.9,-,N/A,,Mostly Cloudy,300,2012-12-03 18:38:00
1:53 PM,39.9,33.1,77,30.08,10.0,NW,10.4,16.1,N/A,,Overcast,310,2012-12-03 18:53:00
2:53 PM,39.0,32.0,76,30.12,10.0,NNW,8.1,-,N/A,,Overcast,340,2012-12-03 19:53:00
3:53 PM,37.9,32.0,79,30.15,10.0,NNW,3.5,-,N/A,,Overcast,340,2012-12-03 20:53:00
4:21 PM,35.6,30.2,81,30.14,10.0,Calm,Calm,-,N/A,,Partly Cloudy,0,2012-12-03 21:21:00
4:53 PM,36.0,30.9,82,30.18,10.0,NNW,4.6,-,N/A,,Clear,340,2012-12-03 21:53:00
5:53 PM,34.0,30.9,89,30.20,10.0,NNW,4.6,-,N/A,,Partly Cloudy,330,2012-12-03 22:53:00
6:53 PM,30.9,28.9,92,30.22,10.0,Calm,Calm,-,N/A,,Scattered Clouds,0,2012-12-03 23:53:00
7:53 PM,28.0,26.1,92,30.22,3.0,Calm,Calm,-,N/A,,Clear,0,2012-12-04 00:53:00
8:09 PM,28.4,26.6,93,30.21,1.5,Calm,Calm,-,N/A,,Clear,0,2012-12-04 01:09:00
8:16 PM,28.4,24.8,86,30.22,1.0,Calm,Calm,-,N/A,,Partly Cloudy,0,2012-12-04 01:16:00
8:20 PM,28.4,26.6,93,30.22,2.0,Calm,Calm,-,N/A,,Partly Cloudy,0,2012-12-04 01:20:00
8:27 PM,30.2,26.6,86,30.23,9.0,Calm,Calm,-,N/A,,Partly Cloudy,0,2012-12-04 01:27:00
8:53 PM,26.1,25.0,96,30.25,10.0,Calm,Calm,-,N/A,,Clear,0,2012-12-04 01:53:00
9:53 PM,27.0,25.0,92,30.25,9.0,Calm,Calm,-,N/A,,Clear,0,2012-12-04 02:53:00
10:53 PM,26.1,24.1,92,30.26,10.0,Calm,Calm,-,N/A,,Clear,0,2012-12-04 03:53:00
11:53 PM,23.0,19.9,88,30.27,10.0,WSW,3.5,-,N/A,,Clear,250,2012-12-04 04:53:00